This is the latest recevied weather packets stored in our database for station/object W4MSI. If no packets are shown the sender has not sent any weather packets the latest 10 day(s).
| Time | Temp. | Humidity | Pressure | Rain* | Wind** | Luminosity | Snow |
|---|---|---|---|---|---|---|---|
| 1777983261 | 15° C | 76% | 1010.1 hPa | 0 mm | - | 56 W/m² | - |
| 1777982956 | 15° C | 76% | 1010 hPa | 0 mm | - | 55 W/m² | - |
| 1777982653 | 15° C | 76% | 1010 hPa | 0 mm | - | 55 W/m² | - |
| 1777982352 | 15° C | 76% | 1010.1 hPa | 0 mm | - | 48 W/m² | - |
| 1777982049 | 15° C | 76% | 1010 hPa | 0 mm | - | 44 W/m² | - |
| 1777981747 | 15° C | 77% | 1009.9 hPa | 0 mm | - | 37 W/m² | - |
| 1777981443 | 14.44° C | 76% | 1009.7 hPa | 0 mm | - | 32 W/m² | - |
| 1777981139 | 14.44° C | 77% | 1009.7 hPa | 0 mm | - | 29 W/m² | - |
| 1777980836 | 14.44° C | 76% | 1009.4 hPa | 0 mm | - | 24 W/m² | - |
| 1777980531 | 14.44° C | 77% | 1009.3 hPa | 0 mm | - | 20 W/m² | - |
| 1777980230 | 14.44° C | 76% | 1009.4 hPa | 0 mm | - | 19 W/m² | - |
| 1777979925 | 14.44° C | 76% | 1009.5 hPa | 0 mm | - | 15 W/m² | - |
| 1777979620 | 14.44° C | 76% | 1009.4 hPa | 0 mm | - | 10 W/m² | - |
| 1777979317 | 14.44° C | 76% | 1009.4 hPa | 0 mm | - | 10 W/m² | - |
| 1777979014 | 14.44° C | 76% | 1009.5 hPa | 0 mm | - | 6 W/m² | - |
| 1777978711 | 14.44° C | 77% | 1009.4 hPa | 0 mm | - | 3 W/m² | - |
| 1777978407 | 14.44° C | 77% | 1009.5 hPa | 0 mm | - | 2 W/m² | - |
| 1777978103 | 14.44° C | 77% | 1009.5 hPa | 0 mm | - | 1 W/m² | - |
| 1777977801 | 14.44° C | 76% | 1009.5 hPa | 0 mm | - | 1 W/m² | - |
| 1777977497 | 14.44° C | 75% | 1009.4 hPa | 0 mm | - | 0 W/m² | - |
| 1777977194 | 15° C | 75% | 1009.6 hPa | 0 mm | - | 0 W/m² | - |
| 1777976892 | 15° C | 74% | 1009.4 hPa | 0 mm | - | 0 W/m² | - |
| 1777976589 | 15° C | 74% | 1009.4 hPa | 0 mm | - | 0 W/m² | - |
| 1777976289 | 15° C | 73% | 1009.4 hPa | 0 mm | - | 0 W/m² | - |
| 1777975984 | 15° C | 72% | 1009.4 hPa | 0 mm | - | 0 W/m² | - |
* Rain latest hour (hover to see other rain measurements)
** Current wind speed in m/s (hover to see current wind gust speed)